Location: Vihti�l�
(61.3833°N, 23.0667°E)
Time: 05:27:46
(UTC+00:00)

H-2A R/B - Pass Details

Date: 29 November 2020
Orbit: 575 x 597 km, 98.2° (Epoch: 22 January)

Event Time Altitude Azimuth Distance (km) Brightness Sun altitude
Rises 05:37:43 0° 143° (SE) 2,786 8.2 -9.6°
Reaches altitude 10° 05:39:54 10° 138° (SE) 1,890 7.4 -9.4°
Maximum altitude 05:43:51 50° 63° (ENE) 744 4.2 -9.0°
Drops below altitude 10° 05:47:50 10° 349° (NNW) 1,903 5.7 -8.6°
Enters shadow 05:49:28 - 345° (NNW) 2,571 6.3 -8.4°
